Radioactive Concentration measured by Seawater Radiation Monitor near Fukushima Daiichi Nuclear Power Station
Date,Time,Cs137(Bq/L),Cs134(Bq/L),Total β(Bq/L)
2019/09/27,00:00,0.59,ND,ND
2019/09/27,00:10,0.64,ND,ND
2019/09/27,00:20,0.64,ND,ND
2019/09/27,00:30,0.62,ND,ND
2019/09/27,00:40,0.58,ND,ND
2019/09/27,00:50,0.57,ND,ND
2019/09/27,01:00,0.56,ND,ND
2019/09/27,01:10,0.54,ND,ND
2019/09/27,01:20,0.54,ND,ND
2019/09/27,01:30,0.48,ND,ND
2019/09/27,01:40,0.54,ND,ND
2019/09/27,01:50,0.53,ND,ND
2019/09/27,02:00,0.49,ND,ND
2019/09/27,02:10,0.49,ND,ND
2019/09/27,02:20,0.50,ND,ND
2019/09/27,02:30,0.55,ND,ND
2019/09/27,02:40,0.56,ND,ND
2019/09/27,02:50,0.55,ND,ND
2019/09/27,03:00,0.54,ND,ND
2019/09/27,03:10,0.55,ND,ND
2019/09/27,03:20,0.54,ND,ND
2019/09/27,03:30,0.53,ND,ND
2019/09/27,03:40,0.48,ND,ND
2019/09/27,03:50,0.55,ND,ND
2019/09/27,04:00,0.56,ND,ND
2019/09/27,04:10,0.57,ND,ND
2019/09/27,04:20,0.51,ND,ND
2019/09/27,04:30,0.53,ND,ND
2019/09/27,04:40,0.56,ND,ND
2019/09/27,04:50,0.52,ND,ND
2019/09/27,05:00,0.50,ND,ND
2019/09/27,05:10,0.53,ND,ND
2019/09/27,05:20,0.53,ND,ND
2019/09/27,05:30,0.53,ND,ND
2019/09/27,05:40,0.53,ND,ND
2019/09/27,05:50,0.53,ND,ND
2019/09/27,06:00,0.56,ND,ND
2019/09/27,06:10,0.59,ND,ND
2019/09/27,06:20,0.61,ND,ND
2019/09/27,06:30,0.64,ND,ND
2019/09/27,06:40,0.64,ND,ND
2019/09/27,06:50,0.64,ND,ND
2019/09/27,07:00,0.62,ND,ND
2019/09/27,07:10,0.60,ND,ND
2019/09/27,07:20,0.61,ND,ND
2019/09/27,07:30,0.61,ND,ND
2019/09/27,07:40,0.62,ND,ND
2019/09/27,07:50,0.64,ND,ND
2019/09/27,08:00,0.65,ND,ND
2019/09/27,08:10,0.67,ND,ND
2019/09/27,08:20,0.69,ND,ND
2019/09/27,08:30,0.70,ND,ND
2019/09/27,08:40,0.72,ND,ND
2019/09/27,08:50,0.74,ND,ND
2019/09/27,09:00,0.74,ND,ND
2019/09/27,09:10,0.73,ND,ND
2019/09/27,09:20,0.70,ND,ND
2019/09/27,09:30,0.67,ND,ND
2019/09/27,09:40,0.64,ND,ND
2019/09/27,09:50,0.59,ND,ND
2019/09/27,10:00,0.56,ND,ND
2019/09/27,10:10,-,-,-
2019/09/27,10:20,-,-,-
2019/09/27,10:30,-,-,-
2019/09/27,10:40,-,-,-
2019/09/27,10:50,-,-,-
2019/09/27,11:00,-,-,-
2019/09/27,11:10,-,-,-
2019/09/27,11:20,-,-,-
2019/09/27,11:30,-,-,-
2019/09/27,11:40,-,-,-
2019/09/27,11:50,-,-,-
2019/09/27,12:00,-,-,-
2019/09/27,12:10,0.55,ND,ND
2019/09/27,12:20,0.51,ND,ND
2019/09/27,12:30,0.46,ND,ND
2019/09/27,12:40,0.42,ND,ND
2019/09/27,12:50,0.39,ND,ND
2019/09/27,13:00,0.38,ND,ND
2019/09/27,13:10,0.37,ND,ND
2019/09/27,13:20,0.41,ND,ND
2019/09/27,13:30,0.42,ND,ND
2019/09/27,13:40,0.44,ND,ND
2019/09/27,13:50,0.43,ND,ND
2019/09/27,14:00,0.43,ND,ND
2019/09/27,14:10,0.44,ND,ND
2019/09/27,14:20,0.44,ND,ND
2019/09/27,14:30,0.44,ND,ND
2019/09/27,14:40,0.41,ND,ND
2019/09/27,14:50,0.42,ND,ND
2019/09/27,15:00,0.43,ND,ND
2019/09/27,15:10,0.42,ND,ND
2019/09/27,15:20,0.38,ND,ND
2019/09/27,15:30,0.43,ND,ND
2019/09/27,15:40,0.39,ND,ND
2019/09/27,15:50,0.37,ND,ND
2019/09/27,16:00,0.42,ND,ND
2019/09/27,16:10,0.42,ND,ND
2019/09/27,16:20,0.41,ND,ND
2019/09/27,16:30,0.41,ND,ND
2019/09/27,16:40,0.41,ND,ND
2019/09/27,16:50,0.37,ND,ND
2019/09/27,17:00,0.36,ND,ND
2019/09/27,17:10,0.37,ND,ND
2019/09/27,17:20,0.38,ND,ND
2019/09/27,17:30,0.37,ND,ND
2019/09/27,17:40,0.37,ND,ND
2019/09/27,17:50,0.43,ND,ND
2019/09/27,18:00,0.44,ND,ND
2019/09/27,18:10,0.44,ND,ND
2019/09/27,18:20,0.42,ND,ND
2019/09/27,18:30,0.44,ND,ND
2019/09/27,18:40,0.44,ND,ND
2019/09/27,18:50,0.43,ND,ND
2019/09/27,19:00,0.39,ND,ND
2019/09/27,19:10,0.38,ND,ND
2019/09/27,19:20,0.41,ND,ND
2019/09/27,19:30,0.39,ND,ND
2019/09/27,19:40,0.40,ND,ND
2019/09/27,19:50,0.46,ND,ND
2019/09/27,20:00,0.42,ND,ND
2019/09/27,20:10,0.48,ND,ND
2019/09/27,20:20,0.47,ND,ND
2019/09/27,20:30,0.49,ND,ND
2019/09/27,20:40,0.44,ND,ND
2019/09/27,20:50,0.46,ND,ND
2019/09/27,21:00,0.51,ND,ND
2019/09/27,21:10,0.53,ND,ND
2019/09/27,21:20,0.54,ND,ND
2019/09/27,21:30,0.57,ND,ND
2019/09/27,21:40,0.59,ND,ND
2019/09/27,21:50,0.60,ND,ND
2019/09/27,22:00,0.60,ND,ND
2019/09/27,22:10,0.58,ND,ND
2019/09/27,22:20,0.59,ND,ND
2019/09/27,22:30,0.58,ND,ND
2019/09/27,22:40,0.58,ND,ND
2019/09/27,22:50,0.57,ND,ND
2019/09/27,23:00,0.57,ND,ND
2019/09/27,23:10,0.59,ND,ND
2019/09/27,23:20,0.60,ND,ND
2019/09/27,23:30,0.60,ND,ND
2019/09/27,23:40,0.59,ND,ND
2019/09/27,23:50,0.61,ND,ND
